Sarasota, FL

8:34 PM EST on November 22, 2019 (GMT -0500)
Sarasota-bradenton

Weather History for KSRQ - September, 2019

Change the Weather History Date:

Sunday, September 8, 2019

  Actual Average Record
Temperature  
Mean Temperature 86 °F 82 °F  
Max Temperature 93 °F 89 °F 96 °F (1991)
Min Temperature 78 °F 75 °F 65 °F (1960)
Degree Days  
Heating Degree Days 0 0  
Month to date heating degree days 0 0  
Since 1 July heating degree days 0 0  
Cooling Degree Days 20 17  
Month to date cooling degree days 174 136  
Year to date cooling degree days 3032 2433  
Growing Degree Days 36 (Base 50)    
Moisture  
Dew Point 73 °F    
Average Humidity 69    
Maximum Humidity 87    
Minimum Humidity 52    
Precipitation  
Precipitation 0.00 in 0.28 in 4.40 in (1928)
Month to date precipitation 0.16 2.60  
Year to date precipitation 41.55 40.93  
Sea Level Pressure  
Sea Level Pressure 29.99 in    
Wind  
Wind Speed 2 mph ()    
Max Wind Speed 12 mph    
Max Gust Speed 16 mph    
Visibility 10.0 miles    
Events      
T = Trace of Precipitation, MM = Missing Value Source: Averaged Metar Reports

Daily Weather History Graph

Daily Weather History Graph

Search for Another Location

Airport or City:

Astronomy

Sep. 08, 2019 Rise Set
Actual Time 7:12 AM EDT 7:43 PM EDT
Civil Twilight 6:48 AM EDT 8:06 PM EDT
Nautical Twilight 6:21 AM EDT 8:34 PM EDT
Astronomical Twilight 5:53 AM EDT 9:01 PM EDT
Moon 4:25 PM EDT (9/8) 2:16 AM EDT (9/8)
Length of Visible Light 13h 17m
Length of Day
12h 30m
Waxing Gibbous, 75% of the Moon is Illuminated
Sep 8
Waxing Gibbous
Sep 14
Full
Sep 21
Last Quarter
Sep 28
New
Oct 5
First Quarter

Hourly Weather History & Observations

Time (EDT) Temp. Heat Index Dew Point Humidity Pressure Visibility Wind Dir Wind Speed Gust Speed Precip Events Conditions
12:53 AM 81.0 °F 86.2 °F 73.9 °F 79% 29.95 in 10.0 mi Calm Calm - N/A   Clear
1:53 AM 80.1 °F 84.5 °F 73.9 °F 81% 29.95 in 10.0 mi Calm Calm - N/A   Scattered Clouds
2:53 AM 81.0 °F 86.2 °F 73.9 °F 79% 29.95 in 10.0 mi Calm Calm - N/A   Scattered Clouds
3:53 AM 79.0 °F - 73.0 °F 82% 29.94 in 10.0 mi Calm Calm - N/A   Clear
4:53 AM 79.0 °F - 73.0 °F 82% 29.95 in 10.0 mi Calm Calm - N/A   Scattered Clouds
5:53 AM 78.1 °F - 73.9 °F 87% 29.96 in 10.0 mi Calm Calm - N/A   Scattered Clouds
6:53 AM 78.1 °F - 73.0 °F 84% 29.99 in 10.0 mi Calm Calm - N/A   Scattered Clouds
7:53 AM 79.0 °F - 73.9 °F 84% 30.00 in 10.0 mi Calm Calm - N/A   Partly Cloudy
8:53 AM 84.9 °F 92.1 °F 73.9 °F 69% 30.01 in 10.0 mi SSE 3.5 mph - N/A   Clear
9:53 AM 89.1 °F 96.0 °F 72.0 °F 57% 30.01 in 10.0 mi Calm Calm - N/A   Clear
10:53 AM 89.1 °F 97.0 °F 73.0 °F 59% 30.02 in 10.0 mi WSW 6.9 mph - N/A   Clear
11:53 AM 90.0 °F 97.9 °F 73.0 °F 57% 30.02 in 10.0 mi West 8.1 mph - N/A   Partly Cloudy
12:53 PM 91.0 °F 98.2 °F 72.0 °F 53% 30.01 in 10.0 mi West 10.4 mph - N/A   Partly Cloudy
1:53 PM 91.0 °F 99.3 °F 73.0 °F 55% 30.00 in 10.0 mi West 9.2 mph - N/A   Partly Cloudy
2:53 PM 91.9 °F 100.7 °F 73.0 °F 54% 29.99 in 10.0 mi WSW 9.2 mph - N/A   Clear
3:53 PM 91.0 °F 98.2 °F 72.0 °F 53% 29.99 in 10.0 mi WSW 6.9 mph - N/A   Clear
4:53 PM 90.0 °F 97.9 °F 73.0 °F 57% 29.98 in 10.0 mi WSW 9.2 mph - N/A   Clear
5:53 PM 89.1 °F 96.0 °F 72.0 °F 57% 29.98 in 10.0 mi SW 6.9 mph - N/A   Clear
6:53 PM 87.1 °F 93.6 °F 72.0 °F 61% 29.98 in 10.0 mi WSW 6.9 mph - N/A   Clear
7:53 PM 86.0 °F 92.2 °F 72.0 °F 63% 29.98 in 10.0 mi Calm Calm - N/A   Clear
8:53 PM 84.9 °F 91.4 °F 73.0 °F 67% 29.99 in 10.0 mi WNW 3.5 mph - N/A   Clear
9:53 PM 82.9 °F 88.8 °F 73.0 °F 72% 30.01 in 10.0 mi Calm Calm - N/A   Clear
10:53 PM 81.0 °F 85.8 °F 73.0 °F 77% 30.03 in 10.0 mi North 3.5 mph - N/A   Clear
11:53 PM 82.0 °F 87.9 °F 73.9 °F 76% 30.03 in 10.0 mi Calm Calm - N/A   Mostly Cloudy